Skip Page Navigation
NASA JPL Caltech
NASA Logo - Jet Propulsion Laboratory + View the NASA Portal
+ Center for Near-Earth Object Studies
JPL Home Earth Solar System Stars & Galaxies Technology
JPL Solar System Dynamics
BODIES ORBITS EPHEMERIDES TOOLS PHYSICAL DATA DISCOVERY FAQ SITE MAP
JPL Small-Body Database Browser
Search: [ help ]  
214054 (2004 FY37)
Classification: Main-belt Asteroid          SPK-ID: 2214054
Ephemeris | Orbit Diagram | Orbital Elements | Mission Design | Physical Parameters | Discovery Circumstances ]

[ show orbit diagram ]
Orbital Elements at Epoch 2459000.5 (2020-May-31.0) TDB
Reference: JPL 9 (heliocentric ecliptic J2000)
 Element Value Uncertainty (1-sigma)   Units 
e .07106687340801046 1.1045e-07  
a 2.767861906162401 3.3574e-08 au
q 2.571158614466303 2.9835e-07 au
i 5.653935533648993 1.3395e-05 deg
node 20.87945369801579 7.9225e-05 deg
peri 205.1975959121133 0.00011818 deg
M 137.1735376987079 8.6484e-05 deg
tp 2458359.610888457898
(2018-Aug-29.11088846)
0.00040614 TDB
period 1681.957643039849
4.60
3.0603e-05
8.379e-08
d
yr
n .2140363055453418 3.8944e-09 deg/d
Q 2.964565197858499 3.596e-08 au
  Orbit Determination Parameters
   # obs. used (total)      135  
   data-arc span      6222 days (17.03 yr)  
   first obs. used      2001-05-24  
   last obs. used      2018-06-06  
   planetary ephem.      DE431  
   SB-pert. ephem.      SB431-N16  
   condition code      0  
   norm. resid. RMS      .52341  
   source      ORB  
   producer      Otto Matic  
   solution date      2019-Jul-14 06:28:09  

Additional Information
 Earth MOID = 1.56336 au 
 Jupiter MOID = 2.01317 au 
 T_jup = 3.328 
[ show covariance matrix ]

Ephemeris | Orbit Diagram | Orbital Elements | Mission Design | Physical Parameters | Discovery Circumstances ]

Physical Parameter Table
Parameter Symbol Value Units Sigma Reference Notes
absolute magnitude H 16.5   n/a MPO475758  

214054 (2004 FY37)          Discovered 2004-Mar-17 by Spacewatch at Kitt Peak
Reference: 20090509/Numbers.arcLast Updated: 2009-05-11

Alternate Designations
 2004 FY37 = 2006 RU51 
Ephemeris | Orbit Diagram | Orbital Elements | Mission Design | Physical Parameters | Discovery Circumstances ]
ABOUT SSD CREDITS/AWARDS PRIVACY/COPYRIGHT GLOSSARY LINKS
FirstGov 2020-Aug-08 04:15 UT
(server date/time)  
NASA Home Page
Site Manager:   Ryan S. Park
Webmaster  Alan B. Chamberlin